Theta_e
329 326 326 326 326 326 326 326 327 326 327 327 328 326 324 325 325 324 323 323 322 321
327 327 326 327 327 327 328 330 328 328 327 327 326 325 323 324 323 324 324 325 325 321
326 327 327 327 326 329 329 329 328 328 327 326 325 326 326 324 325 322 323 322 322 320
327 327 326 326 328 328 327 329 328 328 326 325 326 326 324 323 325 324 324 324 323 321
329 327 326 326 327 329 327 328 328 328 329 328 328 326 324 324 326 325 324 322 323 322
328 326 325 326 327 328 327 327 328 327 326 326 326 327 325 327 325 325 322 322 321 323
328 326 326 325 326 327 327 326 329 329 328 327 327 327 328 326 324 324 324 324 326 324
329 327 327 327 326 327 327 326 326 329 326 327 326 327 325 325 325 324 325 325 325 323
329 330 326 326 326 325 325 326 325 324 325 323 322 308 314 321 323 324 324 325 322 320
329 328 328 328 326 324 323 323 323 325 320 318 314 302 309 316 326 325 324 324 324 325
327 326 328 326 325 323 325 322 324 323 320 316 313 302 302 314 326 326 326 323 322 322
328 326 326 325 324 323 324 321 322 322 318 316 317 303 304 319 325 323 320 320 322 322
327 327 327 325 324 323 322 322 324 322 318 315 319 303 304 316 320 318 319 319 316 306
326 325 327 326 325 323 322 323 324 322 319 320 317 311 305 309 322 320 318 317 317 312
Wind_Speed
6 3 1 3 2 3 2 2 3 4 5 4 4 3 5 3 2 3 2 4 2 2
5 5 4 4 3 2 2 2 4 5 5 4 4 6 5 2 2 3 3 4 3 2
6 6 5 5 4 3 3 3 5 5 5 5 3 6 4 2 2 5 3 3 3 2
5 5 4 3 4 4 3 6 5 5 5 5 6 6 4 3 3 6 4 2 2 1
6 5 5 4 3 4 3 4 6 5 5 4 6 6 5 3 5 5 4 4 2 0
6 6 4 5 4 4 4 4 5 3 5 5 5 6 4 5 4 5 5 4 4 4
6 6 4 4 4 4 4 5 5 5 5 5 5 6 5 4 4 5 4 3 3 5
6 7 5 4 4 4 6 5 5 4 5 6 6 4 6 6 6 6 7 6 7 5
8 7 6 6 5 5 6 6 6 7 7 7 5 5 9 7 6 6 6 6 5 5
9 7 6 6 6 6 6 6 5 8 7 6 5 7 10 9 5 5 4 5 6 5
7 7 7 6 7 5 5 6 6 7 6 6 4 7 9 8 5 5 7 6 6 6
9 10 9 6 7 5 5 5 6 7 7 6 4 8 5 7 7 7 7 6 6 7
11 11 9 8 7 4 5 5 6 8 6 7 5 6 9 7 4 6 6 5 6 9
12 12 10 7 5 6 6 6 7 9 6 6 5 3 5 6 4 5 5 4 4 3
Wind_Direction
122 126 114 135 122 144 164 196 181 168 162 185 187 167 164 178 193 179 183 185 196 178
140 120 130 120 113 129 156 178 157 159 156 185 186 165 162 150 175 139 132 122 95 79
157 154 139 144 154 155 189 155 151 148 170 179 140 153 144 140 148 133 128 118 105 67
151 135 130 134 148 143 123 141 151 161 183 186 149 152 146 173 150 134 152 116 132 87
133 133 136 130 134 142 141 159 169 187 188 194 153 156 168 190 150 147 155 137 131 152
135 136 128 153 145 135 126 161 169 169 123 125 132 117 112 134 148 139 152 162 155 145
133 138 145 147 138 142 136 132 151 144 151 164 126 123 130 120 109 121 132 109 74 144
149 143 150 141 119 109 111 108 141 144 74 70 67 84 111 101 91 90 89 89 83 75
140 147 155 145 128 114 110 105 112 83 95 80 71 32 89 112 106 100 108 105 94 93
140 165 153 139 123 120 121 121 118 106 96 90 74 29 79 92 93 96 100 109 118 96
165 126 136 129 130 121 118 126 97 99 106 101 80 47 46 86 90 70 61 76 97 105
158 139 133 139 137 134 121 109 106 115 110 105 73 49 40 106 86 80 66 59 63 86
148 144 143 145 143 134 123 118 114 119 122 128 120 68 84 101 100 92 87 72 66 72
134 142 144 138 129 132 133 135 128 128 136 122 127 80 102 125 111 108 106 97 91 84